| time (UTC) | temp F | wind direction | speed MPH | gust MPH | rain 1hr in | rain 24hr in | rain mn in | humidity % | barometer mb |
| 20260905164551 | 80 | 68 | 1.0 | 5.0 | 0.00 | 0.00 | 0.00 | 74 | 1014.7 |
| 20260905163046 | 80 | 27 | 3.0 | 7.0 | 0.00 | 0.00 | 0.00 | 74 | 1014.9 |
| 20260905161544 | 80 | 32 | 0.0 | 5.0 | 0.00 | 0.00 | 0.00 | 72 | 1015.1 |
| 20260905160142 | 80 | 17 | 2.0 | 6.0 | 0.00 | 0.00 | 0.00 | 72 | 1015.4 |
| 20260905154540 | 80 | 27 | 2.0 | 5.0 | 0.00 | 0.00 | 0.00 | 71 | 1015.5 |
| 20260905153039 | 80 | 79 | 3.0 | 9.0 | 0.00 | 0.00 | 0.00 | 69 | 1015.4 |
| 20260905151537 | 81 | 79 | 1.0 | 6.0 | 0.00 | 0.00 | 0.00 | 69 | 1015.4 |
| 20260905150032 | 81 | 66 | 1.0 | 6.0 | 0.00 | 0.00 | 0.00 | 70 | 1015.4 |
| 20260905144534 | 80 | 86 | 1.0 | 6.0 | 0.00 | 0.00 | 0.00 | 71 | 1015.4 |
| 20260905143026 | 80 | 48 | 2.0 | 8.0 | 0.00 | 0.00 | 0.00 | 73 | 1015.2 |
| 20260905141522 | 79 | 27 | 3.0 | 10.0 | 0.00 | 0.00 | 0.00 | 75 | 1014.9 |
| 20260905140016 | 78 | 117 | 3.0 | 13.0 | 0.00 | 0.00 | 0.00 | 77 | 1015.0 |
| 20260905134514 | 78 | 350 | 5.0 | 12.0 | 0.00 | 0.00 | 0.00 | 79 | 1014.7 |
| 20260905133011 | 78 | 55 | 3.0 | 10.0 | 0.00 | 0.00 | 0.00 | 79 | 1014.9 |
| 20260905131507 | 78 | 89 | 1.0 | 5.0 | 0.00 | 0.00 | 0.00 | 82 | 1014.8 |
| 20260905130104 | 77 | 20 | 1.0 | 9.0 | 0.00 | 0.00 | 0.00 | 85 | 1014.6 |
| 20260905124604 | 76 | 347 | 0.0 | 4.0 | 0.00 | 0.00 | 0.00 | 86 | 1014.7 |
| 20260905123104 | 76 | 314 | 1.0 | 5.0 | 0.00 | 0.00 | 0.00 | 86 | 1014.8 |
| 20260905121554 | 76 | 186 | 2.0 | 7.0 | 0.00 | 0.00 | 0.00 | 86 | 1014.7 |
| 20260905120048 | 75 | 34 | 0.0 | 2.0 | 0.00 | 0.00 | 0.00 | 88 | 1014.5 |
| 20260905114546 | 74 | 23 | 0.0 | 2.0 | 0.00 | 0.00 | 0.00 | 89 | 1014.3 |
| 20260905113041 | 74 | 329 | 0.0 | 2.0 | 0.00 | 0.00 | 0.00 | 89 | 1014.3 |
| 20260905111537 | 0 | 0.0 | 0.0 | 0.00 | 0.00 | 0.00 | 1014.0 | ||
| 20260905110033 | 0 | 0.0 | 0.0 | 0.00 | 0.00 | 0.00 | 1014.0 | ||
| 20260905104526 | 0 | 0.0 | 0.0 | 0.00 | 0.00 | 0.00 | 1013.7 | ||
| 20260905103020 | 0 | 0.0 | 0.0 | 0.00 | 0.00 | 0.00 | 1013.5 | ||
| 20260905101515 | 0 | 0.0 | 0.0 | 0.00 | 0.00 | 0.00 | 1013.4 | ||
| 20260905100010 | 0 | 0.0 | 0.0 | 0.00 | 0.00 | 0.00 | 1013.4 | ||
| 20260905094504 | 0 | 0.0 | 0.0 | 0.00 | 0.00 | 0.00 | 1013.2 | ||
| 20260905093100 | 0 | 0.0 | 0.0 | 0.00 | 0.00 | 0.00 | 1013.3 | ||
| 20260905091554 | 0 | 0.0 | 0.0 | 0.00 | 0.00 | 0.00 | 1013.1 | ||
| 20260905090113 | 0 | 0.0 | 0.0 | 0.00 | 0.00 | 0.00 | 1013.2 | ||
| 20260905084543 | 0 | 0.0 | 0.0 | 0.00 | 0.00 | 0.00 | 1013.4 | ||
| 20260905083037 | 0 | 311 | 0.0 | 0.0 | 0.00 | 0.00 | 0.00 | 89 | 1013.3 |
| 20260905081533 | 73 | 310 | 0.0 | 1.0 | 0.00 | 0.00 | 0.00 | 89 | 1013.3 |
| 20260905080029 | 73 | 347 | 0.0 | 2.0 | 0.00 | 0.00 | 0.00 | 89 | 1013.4 |
| 20260905074526 | 74 | 283 | 0.0 | 1.0 | 0.00 | 0.00 | 0.00 | 89 | 1013.5 |
| 20260905073026 | 74 | 309 | 0.0 | 3.0 | 0.00 | 0.00 | 0.00 | 88 | 1013.6 |
| 20260905071522 | 74 | 1 | 0.0 | 1.0 | 0.00 | 0.00 | 0.00 | 88 | 1013.7 |
| 20260905070018 | 74 | 301 | 0.0 | 3.0 | 0.00 | 0.00 | 0.00 | 88 | 1013.8 |
| 20260905064514 | 74 | 299 | 0.0 | 3.0 | 0.00 | 0.00 | 0.00 | 88 | 1014.0 |
| 20260905063008 | 74 | 297 | 0.0 | 4.0 | 0.00 | 0.00 | 0.00 | 89 | 1014.1 |
| 20260905061513 | 74 | 283 | 0.0 | 5.0 | 0.00 | 0.00 | 0.00 | 90 | 1014.2 |
| 20260905060002 | 74 | 211 | 0.0 | 0.0 | 0.00 | 0.01 | 0.00 | 91 | 1014.1 |
| 20260905054606 | 74 | 230 | 0.0 | 0.0 | 0.00 | 0.01 | 0.00 | 92 | 1014.3 |
| 20260905053100 | 74 | 293 | 0.0 | 3.0 | 0.00 | 0.01 | 0.00 | 92 | 1014.5 |
| 20260905051553 | 74 | 247 | 0.0 | 2.0 | 0.00 | 0.01 | 0.00 | 92 | 1014.7 |
| 20260905050050 | 74 | 217 | 0.0 | 1.0 | 0.00 | 0.01 | 0.00 | 92 | 1014.8 |
| 20260905044548 | 74 | 307 | 0.0 | 2.0 | 0.00 | 0.44 | 0.00 | 92 | 1014.8 |
| 20260905043041 | 74 | 304 | 0.0 | 3.0 | 0.00 | 0.44 | 0.00 | 92 | 1014.8 |
| 20260905041548 | 74 | 327 | 0.0 | 1.0 | 0.00 | 0.44 | 0.00 | 92 | 1014.9 |
| 20260905040033 | 74 | 258 | 0.0 | 1.0 | 0.00 | 0.44 | 0.00 | 91 | 1014.9 |
| 20260905034530 | 74 | 271 | 0.0 | 2.0 | 0.00 | 0.44 | 0.44 | 91 | 1015.0 |
| 20260905033027 | 75 | 316 | 0.0 | 5.0 | 0.00 | 0.44 | 0.44 | 90 | 1015.2 |
| 20260905031525 | 75 | 209 | 0.0 | 0.0 | 0.00 | 0.44 | 0.44 | 91 | 1015.2 |
| 20260905030024 | 75 | 303 | 0.0 | 0.0 | 0.00 | 0.44 | 0.44 | 90 | 1015.2 |
| 20260905024528 | 76 | 188 | 0.0 | 1.0 | 0.00 | 0.44 | 0.44 | 91 | 1015.3 |
| 20260905023020 | 76 | 248 | 0.0 | 0.0 | 0.00 | 0.44 | 0.44 | 90 | 1015.2 |
| 20260905021529 | 76 | 179 | 0.0 | 0.0 | 0.00 | 0.44 | 0.44 | 90 | 1015.1 |
| 20260905020020 | 76 | 208 | 0.0 | 0.0 | 0.00 | 0.44 | 0.44 | 89 | 1015.1 |
| 20260905014514 | 77 | 212 | 0.0 | 1.0 | 0.00 | 0.44 | 0.44 | 89 | 1015.1 |
| 20260905013016 | 77 | 212 | 0.0 | 1.0 | 0.00 | 0.44 | 0.44 | 88 | 1015.0 |
| 20260905011512 | 77 | 208 | 0.0 | 1.0 | 0.00 | 0.44 | 0.44 | 89 | 1014.5 |
| 20260905010010 | 77 | 209 | 0.0 | 1.0 | 0.00 | 0.44 | 0.44 | 88 | 1014.4 |
| 20260905004507 | 78 | 209 | 0.0 | 0.0 | 0.00 | 0.44 | 0.44 | 88 | 1014.4 |
| 20260905003006 | 78 | 209 | 0.0 | 0.0 | 0.00 | 0.44 | 0.44 | 87 | 1014.5 |
| 20260905001504 | 78 | 209 | 0.0 | 1.0 | 0.00 | 0.44 | 0.44 | 87 | 1014.3 |
| 20260905000001 | 79 | 247 | 0.0 | 0.0 | 0.00 | 0.44 | 0.44 | 86 | 1014.3 |
| 20260904234602 | 79 | 247 | 0.0 | 0.0 | 0.00 | 0.44 | 0.44 | 85 | 1014.3 |
| 20260904233059 | 80 | 247 | 0.0 | 0.0 | 0.00 | 0.44 | 0.44 | 84 | 1014.2 |
| 20260904231556 | 80 | 247 | 0.0 | 0.0 | 0.00 | 0.44 | 0.44 | 82 | 1014.2 |
| 20260904230055 | 81 | 339 | 0.0 | 0.0 | 0.00 | 0.44 | 0.44 | 81 | 1014.3 |
| 20260904224554 | 82 | 349 | 0.0 | 0.0 | 0.00 | 0.44 | 0.44 | 79 | 1014.3 |
| 20260904223051 | 82 | 349 | 0.0 | 0.0 | 0.00 | 0.44 | 0.44 | 78 | 1014.2 |
| 20260904221553 | 83 | 349 | 0.0 | 0.0 | 0.00 | 0.44 | 0.44 | 77 | 1014.5 |
| 20260904220044 | 83 | 349 | 0.0 | 0.0 | 0.00 | 0.44 | 0.44 | 77 | 1014.9 |
| 20260904214544 | 84 | 349 | 0.0 | 1.0 | 0.00 | 0.44 | 0.44 | 76 | 1014.9 |
| 20260904213043 | 85 | 349 | 0.0 | 1.0 | 0.00 | 0.44 | 0.44 | 72 | 1014.9 |
| 20260904211541 | 86 | 349 | 0.0 | 1.0 | 0.00 | 0.44 | 0.44 | 69 | 1015.1 |
| 20260904210035 | 87 | 349 | 0.0 | 3.0 | 0.00 | 0.44 | 0.44 | 67 | 1015.0 |
| 20260904204532 | 88 | 4 | 2.0 | 6.0 | 0.00 | 0.44 | 0.44 | 65 | 1015.4 |
| 20260904203034 | 89 | 285 | 3.0 | 8.0 | 0.00 | 0.44 | 0.44 | 62 | 1015.5 |
| 20260904201530 | 90 | 341 | 3.0 | 7.0 | 0.00 | 0.44 | 0.44 | 60 | 1015.2 |
| 20260904200027 | 91 | 205 | 2.0 | 7.0 | 0.00 | 0.44 | 0.44 | 59 | 1015.1 |
| 20260904194530 | 90 | 297 | 1.0 | 9.0 | 0.00 | 0.44 | 0.44 | 61 | 1015.1 |
| 20260904193024 | 90 | 333 | 4.0 | 7.0 | 0.00 | 0.44 | 0.44 | 59 | 1015.1 |
| 20260904191521 | 90 | 351 | 1.0 | 9.0 | 0.00 | 0.44 | 0.44 | 60 | 1015.1 |
| 20260904190017 | 90 | 311 | 2.0 | 8.0 | 0.00 | 0.44 | 0.44 | 59 | 1015.4 |
| 20260904184521 | 90 | 352 | 4.0 | 12.0 | 0.00 | 0.44 | 0.44 | 60 | 1015.6 |
| 20260904183013 | 91 | 256 | 0.0 | 6.0 | 0.00 | 0.44 | 0.44 | 59 | 1015.8 |
| 20260904181616 | 89 | 221 | 3.0 | 5.0 | 0.00 | 0.44 | 0.44 | 62 | 1015.9 |
| 20260904180014 | 90 | 353 | 1.0 | 5.0 | 0.00 | 0.44 | 0.44 | 61 | 1016.0 |
| 20260904174502 | 89 | 340 | 1.0 | 4.0 | 0.00 | 0.44 | 0.44 | 66 | 1015.9 |
| 20260904173059 | 88 | 342 | 1.0 | 3.0 | 0.00 | 0.44 | 0.44 | 66 | 1016.1 |
| 20260904171618 | 88 | 340 | 2.0 | 5.0 | 0.00 | 0.44 | 0.44 | 65 | 1016.2 |